TimeCDT,TemperatureF,Dew PointF,Humidity,Sea Level PressureIn,VisibilityMPH,Wind Direction,Wind SpeedMPH,Gust SpeedMPH,PrecipitationIn,Events,Conditions,WindDirDegrees,DateUTC
12:53 AM,55.9,52.0,87,30.04,9.0,West,5.8,-,N/A,,Overcast,270,2012-10-10 05:53:00
1:03 AM,55.4,51.8,88,30.05,10.0,West,5.8,-,N/A,,Overcast,270,2012-10-10 06:03:00
1:28 AM,55.4,51.8,88,30.06,10.0,WNW,5.8,-,N/A,,Overcast,290,2012-10-10 06:28:00
1:40 AM,55.4,53.6,94,30.06,9.0,WNW,5.8,-,N/A,,Overcast,300,2012-10-10 06:40:00
1:45 AM,55.4,53.6,94,30.07,7.0,WNW,6.9,-,N/A,,Overcast,300,2012-10-10 06:45:00
1:53 AM,55.9,53.1,90,30.07,6.0,NW,17.3,25.3,0.01,Rain,Light Rain,320,2012-10-10 06:53:00
2:05 AM,53.6,48.2,82,30.09,10.0,North,12.7,23.0,0.00,,Overcast,350,2012-10-10 07:05:00
2:53 AM,53.1,48.0,83,30.10,10.0,North,18.4,24.2,0.00,,Overcast,350,2012-10-10 07:53:00
3:00 AM,51.8,46.4,82,30.12,10.0,North,15.0,27.6,N/A,,Overcast,350,2012-10-10 08:00:00
3:24 AM,50.0,39.2,66,30.13,10.0,North,9.2,-,N/A,,Overcast,350,2012-10-10 08:24:00
3:53 AM,48.9,36.0,61,30.14,10.0,North,8.1,-,N/A,,Overcast,360,2012-10-10 08:53:00
4:53 AM,46.9,34.0,61,30.15,10.0,North,11.5,-,N/A,,Mostly Cloudy,10,2012-10-10 09:53:00
5:53 AM,43.0,35.1,74,30.18,10.0,North,4.6,-,N/A,,Clear,350,2012-10-10 10:53:00
6:53 AM,42.1,37.0,82,30.20,10.0,North,4.6,-,N/A,,Clear,350,2012-10-10 11:53:00
7:53 AM,44.1,39.0,82,30.23,10.0,Calm,Calm,-,N/A,,Clear,0,2012-10-10 12:53:00
8:53 AM,48.9,39.0,69,30.26,10.0,Variable,3.5,-,N/A,,Clear,0,2012-10-10 13:53:00
9:53 AM,53.1,34.0,48,30.28,10.0,North,9.2,-,N/A,,Clear,360,2012-10-10 14:53:00
10:53 AM,55.0,33.1,43,30.29,10.0,North,8.1,-,N/A,,Clear,350,2012-10-10 15:53:00
11:53 AM,57.0,30.9,37,30.29,10.0,NNW,10.4,-,N/A,,Clear,340,2012-10-10 16:53:00
12:53 PM,57.9,30.0,35,30.27,10.0,North,6.9,17.3,N/A,,Clear,360,2012-10-10 17:53:00
1:53 PM,60.1,30.9,33,30.25,10.0,NNW,9.2,16.1,N/A,,Clear,340,2012-10-10 18:53:00
2:53 PM,60.1,33.1,36,30.23,10.0,North,3.5,-,N/A,,Clear,360,2012-10-10 19:53:00
3:53 PM,60.1,33.1,36,30.22,10.0,North,6.9,-,N/A,,Clear,350,2012-10-10 20:53:00
4:53 PM,59.0,30.0,33,30.22,10.0,WNW,5.8,-,N/A,,Clear,300,2012-10-10 21:53:00
5:53 PM,57.9,32.0,37,30.22,10.0,Calm,Calm,-,N/A,,Clear,0,2012-10-10 22:53:00
6:53 PM,51.1,36.0,56,30.22,10.0,Calm,Calm,-,N/A,,Clear,0,2012-10-10 23:53:00
7:53 PM,46.0,37.9,73,30.23,10.0,Calm,Calm,-,N/A,,Clear,0,2012-10-11 00:53:00
8:53 PM,44.1,37.9,79,30.23,10.0,Calm,Calm,-,N/A,,Clear,0,2012-10-11 01:53:00
9:53 PM,42.1,37.0,82,30.23,10.0,Calm,Calm,-,N/A,,Clear,0,2012-10-11 02:53:00
10:53 PM,39.9,37.0,89,30.23,10.0,Calm,Calm,-,N/A,,Clear,0,2012-10-11 03:53:00
11:53 PM,39.0,36.0,89,30.23,10.0,Calm,Calm,-,N/A,,Clear,0,2012-10-11 04:53:00